• In Hungary
  • List of Countries
  • For 7 days
  • Water Temperature
  • Satellite Maps
  • Weather Map
  • News
  • Weather Widgets
  • user-avatar
    Login

    Hourly Weather Canberra

    Today, 25 September, Monday

    Time Temperature Precipitation Wind Pressure Humidity
    00:00 +10°C° 0 mm 3 mps 701 mmHg 56%
    01:00 +9°C° 0 mm 3 mps 701 mmHg 55%
    02:00 +9°C° 0 mm 3 mps 701 mmHg 58%
    03:00 +7°C° 0 mm 4 mps 701 mmHg 61%
    04:00 +7°C° 0 mm 4 mps 701 mmHg 63%
    05:00 +7°C° 0 mm 4 mps 701 mmHg 65%
    06:00 +7°C° 0 mm 4 mps 702 mmHg 66%
    07:00 +7°C° 0 mm 5 mps 702 mmHg 67%
    08:00 +9°C° 0 mm 5 mps 703 mmHg 62%
    09:00 +11°C° 0 mm 6 mps 703 mmHg 57%
    10:00 +13°C° 0 mm 6 mps 703 mmHg 52%
    11:00 +14°C° 0 mm 6 mps 703 mmHg 50%
    12:00 +14°C° 0 mm 7 mps 703 mmHg 48%
    13:00 +15°C° 0 mm 7 mps 703 mmHg 46%
    14:00 +14°C° 0 mm 6 mps 703 mmHg 48%
    15:00 +14°C° 0 mm 6 mps 703 mmHg 51%
    16:00 +14°C° 0 mm 6 mps 704 mmHg 53%
    17:00 +12°C° 0 mm 5 mps 704 mmHg 60%
    18:00 +10°C° 0 mm 4 mps 704 mmHg 67%
    19:00 +9°C° 0 mm 3 mps 705 mmHg 74%
    20:00 +8°C° 0 mm 2 mps 705 mmHg 76%
    21:00 +8°C° 0 mm 2 mps 706 mmHg 78%
    22:00 +7°C° 0 mm 2 mps 707 mmHg 80%
    23:00 +7°C° 0 mm 2 mps 707 mmHg 81%

    Tomorrow, 26 September, Tuesday

    Time Temperature Precipitation Wind Pressure Humidity
    00:00 +6°C° 0 mm 2 mps 707 mmHg 81%
    01:00 +6°C° 0 mm 2 mps 707 mmHg 82%
    02:00 +5°C° 0 mm 2 mps 707 mmHg 83%
    03:00 +5°C° 0 mm 2 mps 707 mmHg 83%
    04:00 +5°C° 0 mm 1 mps 707 mmHg 84%
    05:00 +6°C° 0 mm 1 mps 707 mmHg 80%
    06:00 +7°C° 0 mm 1 mps 708 mmHg 76%
    07:00 +7°C° 0 mm 1 mps 708 mmHg 72%
    08:00 +10°C° 0 mm 1 mps 709 mmHg 59%
    09:00 +13°C° 0 mm 2 mps 709 mmHg 46%
    10:00 +16°C° 0 mm 2 mps 709 mmHg 33%
    11:00 +17°C° 0 mm 3 mps 709 mmHg 31%
    12:00 +18°C° 0 mm 3 mps 709 mmHg 29%
    13:00 +19°C° 0 mm 4 mps 709 mmHg 28%
    14:00 +18°C° 0 mm 4 mps 709 mmHg 31%
    15:00 +18°C° 0 mm 3 mps 708 mmHg 34%
    16:00 +18°C° 0 mm 3 mps 708 mmHg 37%
    17:00 +14°C° 0 mm 3 mps 708 mmHg 48%
    18:00 +12°C° 0 mm 2 mps 709 mmHg 60%
    19:00 +9°C° 0 mm 1 mps 709 mmHg 71%
    20:00 +8°C° 0 mm 1 mps 709 mmHg 75%
    21:00 +7°C° 0 mm 1 mps 709 mmHg 80%
    22:00 +6°C° 0 mm 1 mps 709 mmHg 84%
    23:00 +6°C° 0 mm 1 mps 709 mmHg 85%

    Day after tomorrow, 27 September, Wednesday

    Time Temperature Precipitation Wind Pressure Humidity
    00:00 +6°C° 0 mm 1 mps 709 mmHg 86%
    01:00 +6°C° 0 mm 1 mps 709 mmHg 88%
    02:00 +6°C° 0 mm 1 mps 708 mmHg 88%
    03:00 +6°C° 0 mm 1 mps 708 mmHg 89%
    04:00 +6°C° 0 mm 1 mps 708 mmHg 90%
    05:00 +7°C° 0 mm 1 mps 708 mmHg 88%
    06:00 +8°C° 0 mm 1 mps 708 mmHg 86%
    07:00 +9°C° 0 mm 1 mps 708 mmHg 83%
    08:00 +12°C° 0 mm 2 mps 707 mmHg 72%
    09:00 +16°C° 0 mm 2 mps 707 mmHg 60%
    10:00 +19°C° 0 mm 3 mps 707 mmHg 48%
    11:00 +20°C° 0 mm 3 mps 706 mmHg 48%
    12:00 +21°C° 0 mm 3 mps 706 mmHg 48%
    13:00 +22°C° 0 mm 3 mps 705 mmHg 48%
    14:00 +21°C° 0.2 mm 2 mps 704 mmHg 56%
    15:00 +20°C° 0.2 mm 2 mps 703 mmHg 63%
    16:00 +20°C° 0.2 mm 1 mps 702 mmHg 71%
    17:00 +18°C° 0.3 mm 1 mps 703 mmHg 77%
    18:00 +16°C° 0.3 mm 1 mps 703 mmHg 84%
    19:00 +15°C° 0.3 mm 1 mps 703 mmHg 90%
    20:00 +14°C° 0.9 mm 2 mps 703 mmHg 91%
    21:00 +14°C° 0.9 mm 2 mps 703 mmHg 92%
    22:00 +12°C° 0.9 mm 3 mps 704 mmHg 94%
    23:00 +12°C° 1 mm 3 mps 703 mmHg 93%

    28 September, Thursday

    Time Temperature Precipitation Wind Pressure Humidity
    00:00 +11°C° 1 mm 4 mps 702 mmHg 93%
    01:00 +10°C° 1 mm 5 mps 701 mmHg 93%
    02:00 +10°C° 0.2 mm 5 mps 701 mmHg 93%
    03:00 +10°C° 0.2 mm 5 mps 701 mmHg 93%
    04:00 +10°C° 0.2 mm 5 mps 701 mmHg 92%
    05:00 +10°C° 0.1 mm 5 mps 702 mmHg 92%
    06:00 +9°C° 0.1 mm 5 mps 703 mmHg 91%
    07:00 +9°C° 0.1 mm 5 mps 703 mmHg 91%
    08:00 +11°C° 0 mm 6 mps 704 mmHg 80%
    09:00 +13°C° 0 mm 6 mps 704 mmHg 70%
    10:00 +14°C° 0 mm 7 mps 705 mmHg 59%
    11:00 +15°C° 0 mm 7 mps 704 mmHg 58%
    12:00 +15°C° 0 mm 7 mps 704 mmHg 56%
    13:00 +16°C° 0 mm 7 mps 704 mmHg 55%
    14:00 +15°C° 0 mm 6 mps 704 mmHg 57%
    15:00 +15°C° 0 mm 5 mps 704 mmHg 59%
    16:00 +15°C° 0 mm 5 mps 704 mmHg 60%
    17:00 +13°C° 0 mm 4 mps 705 mmHg 68%
    18:00 +11°C° 0 mm 3 mps 705 mmHg 75%
    19:00 +10°C° 0 mm 2 mps 705 mmHg 82%
    20:00 +10°C° 0 mm 1 mps 706 mmHg 85%
    21:00 +9°C° 0 mm 1 mps 706 mmHg 88%
    22:00 +8°C° 0 mm 1 mps 706 mmHg 91%
    23:00 +8°C° 0 mm 1 mps 706 mmHg 92%

    29 September, Friday

    Time Temperature Precipitation Wind Pressure Humidity
    00:00 +7°C° 0 mm 2 mps 706 mmHg 92%
    01:00 +7°C° 0 mm 2 mps 706 mmHg 92%
    02:00 +7°C° 0 mm 2 mps 706 mmHg 91%
    03:00 +7°C° 0 mm 2 mps 706 mmHg 90%
    04:00 +7°C° 0 mm 3 mps 706 mmHg 90%
    05:00 +7°C° 0 mm 3 mps 707 mmHg 85%
    06:00 +7°C° 0 mm 3 mps 708 mmHg 80%
    07:00 +6°C° 0 mm 4 mps 708 mmHg 75%
    08:00 +8°C° 0 mm 4 mps 708 mmHg 65%
    09:00 +10°C° 0 mm 5 mps 708 mmHg 55%
    10:00 +11°C° 0 mm 6 mps 709 mmHg 45%
    11:00 +13°C° 0 mm 6 mps 708 mmHg 44%
    12:00 +14°C° 0 mm 6 mps 708 mmHg 42%
    13:00 +15°C° 0 mm 6 mps 708 mmHg 40%
    14:00 +14°C° 0 mm 6 mps 707 mmHg 43%
    15:00 +14°C° 0 mm 6 mps 707 mmHg 46%
    16:00 +13°C° 0 mm 6 mps 707 mmHg 48%
    17:00 +10°C° 0 mm 5 mps 707 mmHg 56%
    18:00 +8°C° 0 mm 4 mps 708 mmHg 63%
    19:00 +8°C° 0 mm 2 mps 708 mmHg 71%
    20:00 +7°C° 0 mm 3 mps 708 mmHg 72%
    21:00 +7°C° 0 mm 3 mps 708 mmHg 73%
    22:00 +7°C° 0 mm 3 mps 708 mmHg 74%
    23:00 +5°C° 0 mm 3 mps 708 mmHg 74%

    30 September, Saturday

    Time Temperature Precipitation Wind Pressure Humidity
    00:00 +5°C° 0 mm 3 mps 708 mmHg 74%
    01:00 +5°C° 0 mm 3 mps 708 mmHg 74%
    02:00 +7°C° 0 mm 3 mps 708 mmHg 75%
    03:00 +6°C° 0 mm 4 mps 708 mmHg 76%
    04:00 +6°C° 0 mm 4 mps 708 mmHg 77%
    05:00 +6°C° 0 mm 4 mps 708 mmHg 74%
    06:00 +6°C° 0 mm 5 mps 708 mmHg 71%
    07:00 +7°C° 0 mm 5 mps 709 mmHg 69%
    08:00 +9°C° 0 mm 5 mps 709 mmHg 61%
    09:00 +10°C° 0 mm 6 mps 709 mmHg 53%
    10:00 +13°C° 0 mm 6 mps 710 mmHg 46%
    11:00 +14°C° 0 mm 6 mps 709 mmHg 44%
    12:00 +14°C° 0 mm 6 mps 709 mmHg 42%
    13:00 +15°C° 0 mm 6 mps 709 mmHg 40%
    14:00 +14°C° 0 mm 5 mps 709 mmHg 42%
    15:00 +14°C° 0 mm 5 mps 709 mmHg 43%
    16:00 +14°C° 0 mm 5 mps 708 mmHg 45%
    17:00 +12°C° 0 mm 4 mps 709 mmHg 54%
    18:00 +8°C° 0 mm 4 mps 710 mmHg 63%
    19:00 +7°C° 0 mm 3 mps 710 mmHg 72%
    20:00 +7°C° 0 mm 2 mps 711 mmHg 76%
    21:00 +6°C° 0 mm 2 mps 711 mmHg 79%
    22:00 +5°C° 0 mm 2 mps 711 mmHg 82%
    23:00 +5°C° 0 mm 2 mps 711 mmHg 84%
    Show more